Location: Kile Knob Observatory
(38.6083°N, 79.4792°W)
Time: 23:38:52
(UTC-04:00)

Tiangong 2 - Pass Details

Date: 30 May 2019
Orbit: 376 x 388 km, 42.8° (Epoch: 25 June)

Event Time Altitude Azimuth Distance (km) Brightness Sun altitude
Rises 21:09:23 0° 291° (WNW) 2,237 6.9 -6.5°
Reaches altitude 10° 21:11:27 10° 293° (WNW) 1,383 5.5 -6.8°
Maximum altitude 21:14:34 78° 19° (NNE) 386 1.1 -7.3°
Drops below altitude 10° 21:17:40 10° 107° (ESE) 1,375 3.3 -7.8°
Enters shadow 21:17:44 10° 107° (ESE) 1,403 3.3 -7.8°
